Location: Newark
(13.8625°N, 100.5144°E)
Time: 18:58:00
(UTC+00:00)

LightSail 2 - Pass Details

Date: 09 May 2021
Orbit: 685 x 700 km, 24.0° (Epoch: 11 June)

Event Time Altitude Azimuth Distance (km) Brightness Sun altitude
Exits shadow 20:19:45 23° 23° (NNE) 1,430 7.1 -34.5°
Drops below altitude 10° 20:22:27 10° 51° (NE) 2,125 8.4 -34.0°
Sets 20:25:10 0° 64° (ENE) 3,038 9.5 -33.4°
